Minneapolis Flying Cloud, MN

6:23 PM CST on December 12, 2019 (GMT -0600)
Flying Cloud

Weather History for KFCM - August, 2019

Change the Weather History Date:

Wednesday, August 7, 2019

  Actual Average Record
Temperature  
Mean Temperature 75 °F -  
Max Temperature 86 °F 79 °F 98 °F (2001)
Min Temperature 66 °F 59 °F 54 °F (2017)
Cooling Degree Days 10    
Growing Degree Days 25 (Base 50)    
Moisture  
Dew Point 62 °F    
Average Humidity 64    
Maximum Humidity 90    
Minimum Humidity 43    
Precipitation  
Precipitation 0.00 in - - ()
Sea Level Pressure  
Sea Level Pressure 29.78 in    
Wind  
Wind Speed 7 mph (West)    
Max Wind Speed 16 mph    
Max Gust Speed 26 mph    
Visibility 10 miles    
Events      
Averages and records for this station are not official NWS values.
T = Trace of Precipitation, MM = Missing Value Source: NWS Daily Summary

Daily Weather History Graph

Daily Weather History Graph

Search for Another Location

Airport or City:

Astronomy

Aug. 07, 2019 Rise Set
Actual Time 6:06 AM CDT 8:32 PM CDT
Civil Twilight 5:33 AM CDT 9:04 PM CDT
Nautical Twilight 4:52 AM CDT 9:45 PM CDT
Astronomical Twilight 4:06 AM CDT 10:31 PM CDT
Moon 1:58 PM CDT (8/7) 12:01 AM CDT (8/7)
Length of Visible Light 15h 31m
Length of Day
14h 25m
Waxing Crescent, 50% of the Moon is Illuminated
Aug 7
Waxing Crescent
Aug 7
First Quarter
Aug 15
Full
Aug 23
Last Quarter
Aug 30
New

Hourly Weather History & Observations

Time (CDT) Temp. Heat Index Dew Point Humidity Pressure Visibility Wind Dir Wind Speed Gust Speed Precip Events Conditions
12:53 AM 70.0 °F - 63.0 °F 78% 29.78 in 10.0 mi SSW 4.6 mph - N/A   Partly Cloudy
1:53 AM 70.0 °F - 62.1 °F 76% 29.76 in 10.0 mi SW 5.8 mph - N/A   Clear
2:53 AM 69.1 °F - 63.0 °F 81% 29.77 in 10.0 mi SW 5.8 mph - N/A   Clear
3:53 AM 68.0 °F - 63.0 °F 84% 29.78 in 10.0 mi WSW 4.6 mph - N/A   Clear
4:53 AM 66.9 °F - 63.0 °F 87% 29.77 in 10.0 mi West 4.6 mph - N/A   Clear
5:53 AM 66.0 °F - 63.0 °F 90% 29.77 in 10.0 mi SW 5.8 mph - N/A   Clear
6:53 AM 66.0 °F - 63.0 °F 90% 29.77 in 9.0 mi SW 3.5 mph - N/A   Clear
7:53 AM 69.1 °F - 64.0 °F 84% 29.76 in 10.0 mi SW 5.8 mph - N/A   Clear
8:53 AM 73.0 °F - 64.9 °F 76% 29.76 in 10.0 mi SW 8.1 mph - N/A   Clear
9:53 AM 77.0 °F - 64.0 °F 64% 29.76 in 10.0 mi WSW 6.9 mph - N/A   Clear
10:53 AM 80.1 °F 81.7 °F 64.0 °F 58% 29.77 in 10.0 mi West 9.2 mph - N/A   Clear
11:53 AM 81.0 °F 82.2 °F 63.0 °F 54% 29.77 in 10.0 mi West 9.2 mph 18.4 mph N/A   Clear
12:53 PM 82.9 °F 84.4 °F 64.0 °F 53% 29.77 in 10.0 mi West 8.1 mph - N/A   Clear
1:53 PM 84.9 °F 86.1 °F 64.0 °F 49% 29.76 in 10.0 mi WNW 8.1 mph 18.4 mph N/A   Clear
2:53 PM 84.0 °F 84.5 °F 62.1 °F 47% 29.76 in 10.0 mi WNW 13.8 mph 21.9 mph N/A   Clear
3:53 PM 84.9 °F 84.8 °F 60.1 °F 43% 29.75 in 10.0 mi WNW 16.1 mph 26.5 mph N/A   Clear
4:53 PM 84.0 °F 83.8 °F 59.0 °F 43% 29.76 in 10.0 mi WNW 12.7 mph 23.0 mph N/A   Clear
5:53 PM 84.0 °F 83.8 °F 59.0 °F 43% 29.77 in 10.0 mi WNW 15.0 mph 25.3 mph N/A   Clear
6:53 PM 82.0 °F 82.4 °F 60.1 °F 47% 29.77 in 10.0 mi NW 11.5 mph 23.0 mph N/A   Partly Cloudy
7:53 PM 79.0 °F - 59.0 °F 50% 29.77 in 10.0 mi WNW 15.0 mph 19.6 mph N/A   Clear
8:53 PM 75.9 °F - 60.1 °F 58% 29.78 in 10.0 mi NNW 10.4 mph - N/A   Scattered Clouds
9:53 PM 75.0 °F - 57.9 °F 55% 29.81 in 10.0 mi NW 11.5 mph 19.6 mph N/A   Clear
10:53 PM 72.0 °F - 57.9 °F 61% 29.83 in 10.0 mi NW 10.4 mph - N/A   Clear
11:53 PM 70.0 °F - 57.0 °F 63% 29.86 in 10.0 mi NNW 10.4 mph 18.4 mph N/A   Partly Cloudy